Location: Unspecified
(50.7693°N, 0.0000°E)
Time: 02:01:16
(UTC+00:00)

Transit 2A Rocket - Pass Details

Date: 23 October 2019
Orbit: 594 x 909 km, 66.7° (Epoch: 14 November)

Event Time Altitude Azimuth Distance (km) Brightness Sun altitude
Exits shadow 04:48:08 19° 218° (SW) 1,649 6.4 -17.6°
Maximum altitude 04:51:41 87° 307° (NW) 680 4.7 -17.0°
Drops below altitude 10° 04:56:17 10° 37° (NE) 2,033 7.7 -16.3°
Sets 04:58:29 0° 38° (NE) 2,912 8.6 -16.0°
